Location: Casilda
(33.0440°S, 61.1680°W)
Time: 21:39:15
(UTC-03:00)

ISS - Pass Details

Date: 08 July 2020
Orbit: 417 x 421 km, 51.6° (Epoch: 08 July)

Event Time Altitude Azimuth Distance (km) Brightness Sun altitude
Rises 19:29:59 0° 222° (SW) 2,399 0.4 -16.0°
Reaches altitude 10° 19:32:08 10° 217° (SW) 1,527 -0.7 -16.4°
Maximum altitude 19:35:30 53° 139° (SE) 534 -3.6 -17.1°
Enters shadow 19:35:58 48° 106° (ESE) 569 -3.6 -17.2°
